Weather History for KI75 - September, 2013

Change the Weather History Date:

Thursday, September 26, 2013

  Actual Average (KLWD) Record (KLWD)
Temperature  
Mean Temperature 70 °F 61 °F  
Max Temperature 83 °F 72 °F 88 °F (1990)
Min Temperature 57 °F 50 °F 32 °F (1984)
Degree Days  
Heating Degree Days 0 6  
Month to date heating degree days 66  
Since 1 July heating degree days 74  
Cooling Degree Days 5 2  
Month to date cooling degree days 90  
Year to date cooling degree days 928  
Growing Degree Days 20 (Base 50)    
Moisture  
Dew Point 58 °F    
Average Humidity 72    
Maximum Humidity 95    
Minimum Humidity 40    
Precipitation  
Precipitation 0.00 in 0.09 in 2.11 in (2014)
Month to date precipitation 3.12  
Sea Level Pressure  
Sea Level Pressure 29.91 in    
Wind  
Wind Speed 7 mph (SE)    
Max Wind Speed 16 mph    
Max Gust Speed 25 mph    
Visibility 8 miles    
Events      
T = Trace of Precipitation, MM = Missing Value Source: NWS Daily Summary

Daily Weather History Graph

Daily Weather History Graph

Search for Another Location

Airport or City:

Trip Planner

Search our weather history database for the weather conditions in past years. The results will help you decide how hot, cold, wet, or windy it might be!

Date:

Astronomy

Sep. 26, 2013 Rise Set
Actual Time 7:06 AM CDT 7:04 PM CDT
Civil Twilight 6:39 AM CDT 7:32 PM CDT
Nautical Twilight 6:07 AM CDT 8:04 PM CDT
Astronomical Twilight 5:34 AM CDT 8:36 PM CDT
Moon No Moon Rise 2:01 PM CDT (9/26)
Length of Visible Light 12h 52m
Length of Day
11h 58m
Waning Gibbous, 54% of the Moon is Illuminated
Sep 26
Waning Gibbous
Sep 26
Last Quarter
Oct 4
New
Oct 11
First Quarter
Oct 18
Full

Hourly Weather History & Observations

Time (CDT) Temp. Heat Index Dew Point Humidity Pressure Visibility Wind Dir Wind Speed Gust Speed Precip Events Conditions
12:15 AM 60.3 °F - 57.7 °F 91% 29.88 in 7.0 mi SE 4.6 mph - N/A   Clear
12:35 AM 59.9 °F - 57.4 °F 91% 29.89 in 7.0 mi SSE 3.5 mph - N/A   Clear
12:55 AM 59.5 °F - 57.4 °F 93% 29.89 in 7.0 mi SSE 3.5 mph - N/A   Clear
1:15 AM 59.0 °F - 57.0 °F 93% 29.89 in 5.0 mi SE 3.5 mph - N/A   Clear
1:35 AM 59.4 °F - 57.4 °F 93% 29.89 in 7.0 mi Calm Calm - N/A   Clear
1:55 AM 59.0 °F - 57.2 °F 94% 29.90 in 5.0 mi Calm Calm - N/A   Clear
2:15 AM 58.3 °F - 56.5 °F 94% 29.90 in 5.0 mi ESE 3.5 mph - N/A   Clear
2:35 AM 58.3 °F - 56.5 °F 94% 29.91 in 5.0 mi SE 3.5 mph - N/A   Clear
2:55 AM 57.9 °F - 56.3 °F 94% 29.90 in 5.0 mi SE 4.6 mph - N/A   Clear
3:15 AM 58.1 °F - 56.3 °F 94% 29.90 in 4.0 mi ESE 3.5 mph - N/A   Clear
3:35 AM 57.9 °F - 56.3 °F 94% 29.90 in 4.0 mi SE 3.5 mph - N/A   Clear
3:55 AM 58.3 °F - 56.7 °F 94% 29.90 in 5.0 mi SE 4.6 mph - N/A   Clear
4:15 AM 57.9 °F - 56.3 °F 94% 29.91 in 4.0 mi ESE 3.5 mph - N/A   Clear
4:35 AM 57.9 °F - 56.3 °F 94% 29.90 in 4.0 mi ESE 4.6 mph - N/A   Clear
4:55 AM 58.1 °F - 56.5 °F 94% 29.91 in 4.0 mi ESE 4.6 mph - N/A   Clear
5:15 AM 58.3 °F - 56.7 °F 94% 29.90 in 4.0 mi ESE 4.6 mph - N/A   Clear
5:35 AM 58.3 °F - 56.7 °F 94% 29.90 in 4.0 mi ESE 4.6 mph - N/A   Clear
5:55 AM 58.3 °F - 56.7 °F 94% 29.91 in 4.0 mi East 5.8 mph - N/A   Clear
6:15 AM 58.6 °F - 57.2 °F 95% 29.91 in 4.0 mi ESE 6.9 mph - N/A   Clear
6:35 AM 59.0 °F - 57.4 °F 94% 29.91 in 4.0 mi ESE 5.8 mph - N/A   Clear
6:55 AM 59.2 °F - 57.6 °F 94% 29.91 in 4.0 mi ESE 5.8 mph - N/A   Clear
7:15 AM 59.2 °F - 57.6 °F 94% 29.91 in 3.0 mi ESE 5.8 mph - N/A   Clear
7:35 AM 59.5 °F - 57.9 °F 94% 29.92 in 3.0 mi ESE 5.8 mph - N/A   Clear
7:55 AM 60.3 °F - 58.5 °F 94% 29.92 in 4.0 mi ESE 6.9 mph - N/A   Clear
8:15 AM 61.0 °F - 58.6 °F 92% 29.92 in 5.0 mi ESE 9.2 mph - N/A   Clear
8:35 AM 61.9 °F - 59.0 °F 90% 29.93 in 5.0 mi SE 8.1 mph - N/A   Clear
8:55 AM 63.3 °F - 59.7 °F 88% 29.93 in 7.0 mi SE 9.2 mph - N/A   Clear
9:15 AM 64.9 °F - 60.8 °F 86% 29.94 in 7.0 mi SE 8.1 mph - N/A   Clear
9:35 AM 66.7 °F - 61.5 °F 83% 29.95 in 10.0 mi SSE 11.5 mph - N/A   Clear
9:55 AM 68.5 °F - 61.7 °F 79% 29.95 in 10.0 mi SE 9.2 mph - N/A   Clear
10:15 AM 70.2 °F - 61.9 °F 75% 29.95 in 10.0 mi SSE 11.5 mph - N/A   Clear
10:35 AM 72.1 °F - 61.9 °F 70% 29.95 in 10.0 mi SSE 11.5 mph - N/A   Clear
10:55 AM 73.8 °F - 62.1 °F 67% 29.94 in 7.0 mi SSE 12.7 mph 19.6 mph N/A   Clear
11:15 AM 75.2 °F - 61.7 °F 63% 29.94 in 5.0 mi SSE 11.5 mph 20.7 mph N/A   Haze
11:35 AM 76.1 °F - 61.0 °F 59% 29.94 in 10.0 mi SE 13.8 mph 19.6 mph N/A   Clear
11:55 AM 76.5 °F - 59.5 °F 56% 29.94 in 7.0 mi SSE 15.0 mph 25.3 mph N/A   Clear
12:15 PM 77.9 °F - 60.3 °F 54% 29.93 in 10.0 mi SE 13.8 mph 20.7 mph N/A   Clear
12:35 PM 78.4 °F - 59.5 °F 52% 29.93 in 10.0 mi SE 13.8 mph 19.6 mph N/A   Clear
12:55 PM 79.2 °F - 59.5 °F 51% 29.92 in 7.0 mi SSE 12.7 mph 20.7 mph N/A   Clear
1:15 PM 79.9 °F - 58.6 °F 48% 29.92 in 7.0 mi SSE 13.8 mph 19.6 mph N/A   Clear
1:35 PM 80.4 °F 81.0 °F 59.0 °F 48% 29.91 in 10.0 mi SSE 10.4 mph 18.4 mph N/A   Clear
1:55 PM 81.1 °F 81.3 °F 58.1 °F 45% 29.91 in 10.0 mi SSE 15.0 mph 19.6 mph N/A   Clear
2:15 PM 81.1 °F 81.4 °F 58.8 °F 46% 29.90 in 10.0 mi SE 13.8 mph 20.7 mph N/A   Clear
2:35 PM 81.9 °F 81.7 °F 57.6 °F 43% 29.90 in 10.0 mi SSE 13.8 mph 20.7 mph N/A   Clear
2:55 PM 82.4 °F 81.9 °F 56.7 °F 41% 29.89 in 10.0 mi SSE 13.8 mph 20.7 mph N/A   Clear
3:15 PM 83.3 °F 82.6 °F 56.5 °F 40% 29.89 in 10.0 mi SSE 12.7 mph 19.6 mph N/A   Clear
3:35 PM 82.4 °F 82.0 °F 56.8 °F 42% 29.89 in 10.0 mi SSE 9.2 mph 19.6 mph N/A   Clear
3:55 PM 82.8 °F 82.1 °F 56.3 °F 40% 29.89 in 10.0 mi SSE 12.7 mph 21.9 mph N/A   Clear
4:15 PM 82.4 °F 82.0 °F 56.8 °F 42% 29.89 in 10.0 mi SE 12.7 mph 20.7 mph N/A   Clear
4:35 PM 82.6 °F 82.2 °F 57.0 °F 42% 29.89 in 10.0 mi SE 11.5 mph 19.6 mph N/A   Clear
4:55 PM 81.9 °F 81.8 °F 57.9 °F 44% 29.89 in 10.0 mi SE 16.1 mph 20.7 mph N/A   Clear
5:15 PM 81.5 °F 81.4 °F 57.2 °F 43% 29.89 in 10.0 mi SE 13.8 mph 20.7 mph N/A   Clear
5:35 PM 81.0 °F 81.1 °F 57.6 °F 45% 29.89 in 10.0 mi SE 11.5 mph 20.7 mph N/A   Clear
5:55 PM 79.9 °F - 58.3 °F 48% 29.89 in 10.0 mi SE 11.5 mph 16.1 mph N/A   Clear
6:15 PM 79.0 °F - 58.1 °F 49% 29.88 in 10.0 mi SE 9.2 mph 17.3 mph N/A   Clear
6:35 PM 77.4 °F - 59.0 °F 53% 29.88 in 10.0 mi ESE 9.2 mph - N/A   Clear
6:55 PM 75.7 °F - 59.0 °F 56% 29.88 in 10.0 mi SE 9.2 mph - N/A   Clear
7:15 PM 73.8 °F - 59.4 °F 61% 29.89 in 10.0 mi ESE 6.9 mph - N/A   Clear
7:35 PM 72.1 °F - 59.9 °F 65% 29.88 in 10.0 mi ESE 8.1 mph - N/A   Clear
7:55 PM 72.1 °F - 59.5 °F 64% 29.89 in 10.0 mi ESE 6.9 mph - N/A   Clear
8:15 PM 72.5 °F - 59.4 °F 63% 29.89 in 10.0 mi SE 8.1 mph - N/A   Clear
8:35 PM 71.6 °F - 59.4 °F 65% 29.90 in 10.0 mi SE 8.1 mph - N/A   Clear
8:55 PM 70.9 °F - 59.4 °F 67% 29.91 in 10.0 mi SE 9.2 mph - N/A   Clear
9:15 PM 70.0 °F - 59.4 °F 69% 29.92 in 10.0 mi SE 6.9 mph - N/A   Clear
9:35 PM 69.1 °F - 59.4 °F 71% 29.92 in 10.0 mi SE 6.9 mph - N/A   Clear
9:55 PM 68.5 °F - 59.5 °F 73% 29.93 in 10.0 mi SE 6.9 mph - N/A   Clear
10:15 PM 68.0 °F - 59.5 °F 74% 29.93 in 10.0 mi SE 5.8 mph - N/A   Clear
10:35 PM 67.5 °F - 59.9 °F 77% 29.94 in 10.0 mi SE 6.9 mph - N/A   Clear
10:55 PM 66.9 °F - 59.7 °F 78% 29.94 in 10.0 mi SE 5.8 mph - N/A   Clear
11:15 PM 66.6 °F - 59.9 °F 79% 29.94 in 10.0 mi SE 5.8 mph - N/A   Clear
11:35 PM 66.2 °F - 59.9 °F 80% 29.94 in 10.0 mi SE 5.8 mph - N/A   Clear
11:55 PM 65.8 °F - 59.9 °F 81% 29.95 in 10.0 mi SE 6.9 mph - N/A   Clear